Location: Central Coast NSW, Australia
(33.2407°S, 151.4316°E)
Time: 08:27:53
(UTC+11:00)

Hubble Space Telescope - Visible Passes

Search period start: 25 March 2019 00:00
Search period end: 04 April 2019 00:00
Orbit: 537 x 540 km, 28.5° (Epoch: 24 March)

Date Brightness Start Highest point End Pass type
(mag) Time Alt. Az. Time Alt. Az. Time Alt. Az.
28 Mar 3.3 05:49:10 10° N 05:51:03 13° NNE 05:52:55 10° NE visible
29 Mar 3.1 05:38:20 11° N 05:40:28 16° NNE 05:43:01 10° ENE visible
30 Mar 2.7 05:28:41 17° N 05:29:53 19° NNE 05:32:53 10° ENE visible
31 Mar 2.5 05:18:58 22° N 05:19:19 23° NNE 05:22:38 10° ENE visible
01 Apr 2.4 05:09:12 26° NNE 05:09:12 26° NNE 05:12:17 10° ENE visible
02 Apr 2.6 04:59:24 26° NE 04:59:24 26° NE 05:01:54 10° ENE visible
02 Apr 1.6 06:35:08 10° WNW 06:39:07 43° N 06:43:05 10° ENE visible
03 Apr 2.9 04:49:36 22° ENE 04:49:36 22° ENE 04:51:29 10° ENE visible
03 Apr 1.5 06:24:56 12° WNW 06:28:36 43° N 06:32:34 10° ENE visible
